User: anonymous
Location: Young's Pond
(41.2695°N, 72.7766°W)
Time: 18:13:33
(UTC-04:00)
Language:

CZ-4B R/B - Orbit

View from above orbital plane
View from above orbital plane
View from above satellite
View from above satellite

Ground track
Ground track

The orbit data is extracted from the following two-line orbital elements,

1 29093U 06015B   14242.29740149  .00005359  00000-0  19421-3 0  3776
2 29093 097.5169 322.0744 0089520 001.6273 038.7159 15.25040261460871
Epoch (UTC): 30 August 2014 07:08:15
Eccentricity: 0.0089520
inclination: 97.5169°
perigee height: 429 km
apogee height: 552 km
right ascension of ascending node: 322.0744°
argument of perigee: 1.6273°
revolutions per day: 15.25040261
mean anomaly at epoch: 38.7159°
orbit number at epoch: 46087

The dashed part of the orbit path shows where the satellite is in the earth's shadow,  

DLR